Alturas, CA

5:53 PM PDT on September 22, 2017 (GMT -0700)
Alturas Municipal

Weather History for KAAT - May, 2013

Change the Weather History Date:

Tuesday, May 28, 2013

  Actual Average Record
Temperature  
Mean Temperature 54 °F 55 °F  
Max Temperature 64 °F 72 °F 93 °F (1983)
Min Temperature 44 °F 38 °F 28 °F (1932)
Degree Days  
Heating Degree Days 11 10  
Month to date heating degree days 348 382  
Since 1 July heating degree days 6316 6726  
Cooling Degree Days 0 0  
Month to date cooling degree days 0 0  
Year to date cooling degree days 0 0  
Growing Degree Days 4 (Base 50)    
Moisture  
Dew Point 40 °F    
Average Humidity 65    
Maximum Humidity 93    
Minimum Humidity 36    
Precipitation  
Precipitation 0.12 in 0.05 in 0.92 in (2008)
Month to date precipitation 1.58 1.24  
Year to date precipitation 4.07 7.42  
Sea Level Pressure  
Sea Level Pressure 29.90 in    
Wind  
Wind Speed 7 mph (West)    
Max Wind Speed 15 mph    
Max Gust Speed 21 mph    
Visibility 9 miles    
Events Rain    
T = Trace of Precipitation, MM = Missing Value Source: NWS Daily Summary

Daily Weather History Graph

Daily Weather History Graph

Search for Another Location

Airport or City:

Trip Planner

Search our weather history database for the weather conditions in past years. The results will help you decide how hot, cold, wet, or windy it might be!

Date:

Astronomy

May. 28, 2013 Rise Set
Actual Time 5:32 AM PDT 8:26 PM PDT
Civil Twilight 4:59 AM PDT 8:59 PM PDT
Nautical Twilight 4:18 AM PDT 9:41 PM PDT
Astronomical Twilight 3:30 AM PDT 10:30 PM PDT
Moon 11:52 PM PDT (5/28) 9:28 AM PDT (5/28)
Length of Visible Light 15h 59m
Length of Day
14h 54m
Waning Gibbous, 82% of the Moon is Illuminated
May 28
Waning Gibbous
May 31
Last Quarter
Jun 8
New
Jun 16
First Quarter
Jun 23
Full

Hourly Weather History & Observations

Time (PDT) Temp. Windchill Dew Point Humidity Pressure Visibility Wind Dir Wind Speed Gust Speed Precip Events Conditions
12:15 AM 46.4 °F 41.9 °F 44.6 °F 93% 29.91 in 4.0 mi West 9.2 mph - 0.06 in Rain Rain
12:47 AM 46.4 °F 42.9 °F 44.6 °F 93% 29.91 in 5.0 mi West 6.9 mph - 0.15 in Rain Rain
12:55 AM 46.0 °F 41.9 °F 44.1 °F 93% 29.87 in 6.0 mi WSW 8.1 mph - 0.16 in Rain Light Rain
1:55 AM 45.0 °F 41.2 °F 43.0 °F 93% 29.87 in 10.0 mi West 6.9 mph - 0.05 in   Overcast
2:55 AM 45.0 °F 40.1 °F 43.0 °F 93% 29.86 in 10.0 mi West 9.2 mph - 0.02 in Rain Light Rain
3:12 AM 44.6 °F 41.4 °F 42.8 °F 93% 29.91 in 6.0 mi WNW 5.8 mph - 0.01 in Rain Light Rain
3:36 AM 44.6 °F 41.4 °F 42.8 °F 93% 29.91 in 10.0 mi West 5.8 mph - 0.04 in Rain Light Rain
3:55 AM 45.0 °F 41.8 °F 43.0 °F 93% 29.87 in 9.0 mi NW 5.8 mph - 0.05 in Rain Light Rain
4:22 AM 44.6 °F 41.4 °F 42.8 °F 93% 29.92 in 10.0 mi NW 5.8 mph - 0.01 in Rain Light Rain
4:55 AM 44.1 °F 41.5 °F 41.0 °F 89% 29.88 in 10.0 mi West 4.6 mph - 0.01 in   Overcast
5:55 AM 44.1 °F 41.5 °F 41.0 °F 89% 29.90 in 10.0 mi WNW 4.6 mph - N/A   Overcast
6:55 AM 45.0 °F - 41.0 °F 86% 29.91 in 10.0 mi Calm Calm - N/A   Overcast
7:55 AM 46.0 °F 43.1 °F 39.9 °F 79% 29.93 in 10.0 mi WNW 5.8 mph - N/A   Mostly Cloudy
8:55 AM 46.9 °F - 39.9 °F 77% 29.94 in 10.0 mi NW 8.1 mph - N/A   Overcast
9:55 AM 50.0 °F - 39.0 °F 66% 29.93 in 10.0 mi North 6.9 mph - N/A   Overcast
10:05 AM 50.0 °F - 39.2 °F 66% 29.97 in 10.0 mi NNW 8.1 mph - N/A   Overcast
10:55 AM 53.1 °F - 39.0 °F 59% 29.93 in 10.0 mi NNW 5.8 mph - N/A   Overcast
11:55 AM 55.0 °F - 37.9 °F 53% 29.94 in 10.0 mi NW 8.1 mph - N/A   Overcast
12:55 PM 54.0 °F - 37.9 °F 55% 29.94 in 10.0 mi Variable 3.5 mph - N/A   Overcast
1:55 PM 59.0 °F - 36.0 °F 42% 29.92 in 10.0 mi WNW 6.9 mph - N/A   Mostly Cloudy
2:55 PM 62.1 °F - 37.0 °F 39% 29.90 in 10.0 mi WSW 11.5 mph 17.3 mph N/A   Mostly Cloudy
3:55 PM 63.0 °F - 36.0 °F 37% 29.88 in 10.0 mi NW 5.8 mph 20.7 mph N/A   Mostly Cloudy
4:55 PM 62.1 °F - 36.0 °F 38% 29.88 in 10.0 mi WNW 6.9 mph - N/A   Partly Cloudy
5:55 PM 63.0 °F - 37.0 °F 38% 29.86 in 10.0 mi WSW 9.2 mph - N/A   Partly Cloudy
6:55 PM 59.0 °F - 39.0 °F 48% 29.86 in 10.0 mi WSW 10.4 mph - N/A   Partly Cloudy
7:55 PM 59.0 °F - 39.0 °F 48% 29.85 in 10.0 mi SW 9.2 mph - N/A   Scattered Clouds
8:55 PM 54.0 °F - 39.9 °F 59% 29.86 in 10.0 mi SW 9.2 mph - N/A   Scattered Clouds
9:55 PM 52.0 °F - 39.9 °F 63% 29.86 in 10.0 mi West 9.2 mph - N/A   Clear
10:55 PM 48.9 °F - 41.0 °F 74% 29.85 in 10.0 mi WSW 3.5 mph - N/A   Scattered Clouds
11:55 PM 50.0 °F - 41.0 °F 71% 29.83 in 10.0 mi SSE 6.9 mph - N/A   Overcast